TimePDT,TemperatureF,Dew PointF,Humidity,Sea Level PressureIn,VisibilityMPH,Wind Direction,Wind SpeedMPH,Gust SpeedMPH,PrecipitationIn,Events,Conditions,WindDirDegrees,DateUTC
12:53 AM,46.0,35.1,66,29.93,10.0,West,8.1,-,N/A,,Clear,280,2013-04-16 07:53:00
1:53 AM,45.0,35.1,68,29.94,10.0,West,8.1,-,N/A,,Clear,280,2013-04-16 08:53:00
2:53 AM,44.1,34.0,68,29.95,10.0,West,6.9,-,N/A,,Clear,270,2013-04-16 09:53:00
3:53 AM,44.1,34.0,68,29.96,10.0,West,9.2,-,N/A,,Clear,280,2013-04-16 10:53:00
5:53 AM,43.0,34.0,71,30.00,10.0,Variable,3.5,-,N/A,,Clear,0,2013-04-16 12:53:00
6:53 AM,39.9,34.0,79,30.02,10.0,Variable,3.5,-,N/A,,Clear,0,2013-04-16 13:53:00
7:53 AM,46.0,36.0,68,30.04,10.0,SE,3.5,-,N/A,,Clear,140,2013-04-16 14:53:00
8:53 AM,50.0,35.1,57,30.04,10.0,Calm,Calm,-,N/A,,Clear,0,2013-04-16 15:53:00
9:53 AM,55.9,28.9,36,30.04,10.0,NNW,5.8,-,N/A,,Clear,330,2013-04-16 16:53:00
10:53 AM,60.1,27.0,28,30.04,10.0,NNW,9.2,20.7,N/A,,Clear,330,2013-04-16 17:53:00
11:53 AM,64.0,21.9,20,30.04,10.0,NNW,15.0,23.0,N/A,,Clear,340,2013-04-16 18:53:00
12:53 PM,64.9,21.9,19,30.03,10.0,NNW,11.5,20.7,N/A,,Clear,330,2013-04-16 19:53:00
1:53 PM,64.9,21.9,19,30.02,10.0,NNE,11.5,21.9,N/A,,Clear,20,2013-04-16 20:53:00
2:53 PM,66.9,19.0,16,30.02,10.0,North,11.5,25.3,N/A,,Clear,360,2013-04-16 21:53:00
3:53 PM,68.0,21.0,17,30.01,10.0,North,16.1,23.0,N/A,,Clear,360,2013-04-16 22:53:00
4:53 PM,66.9,21.0,17,30.00,10.0,NNE,11.5,23.0,N/A,,Clear,20,2013-04-16 23:53:00
5:53 PM,66.0,19.0,17,30.00,10.0,North,16.1,26.5,N/A,,Clear,10,2013-04-17 00:53:00
6:53 PM,62.1,35.1,37,30.02,10.0,West,12.7,-,N/A,,Clear,280,2013-04-17 01:53:00
7:53 PM,57.9,37.0,46,30.04,10.0,WNW,6.9,-,N/A,,Clear,300,2013-04-17 02:53:00
8:53 PM,55.9,35.1,45,30.07,10.0,NNW,10.4,-,N/A,,Clear,340,2013-04-17 03:53:00
9:53 PM,55.0,32.0,42,30.09,10.0,North,3.5,-,N/A,,Clear,10,2013-04-17 04:53:00
10:53 PM,52.0,30.0,43,30.11,10.0,NNW,5.8,-,N/A,,Clear,340,2013-04-17 05:53:00
11:53 PM,50.0,30.9,48,30.12,10.0,NNW,4.6,-,N/A,,Clear,330,2013-04-17 06:53:00